User: anonymous   Login
Location: Unspecified
(0.0000°N, 0.0000°E)
Time: 15:51:42
(UTC+00:00)
Language:

Courier 1B Rocket - Orbit

View from above orbital plane
View from above orbital plane
View from above satellite
View from above satellite

Ground track
Ground track

The orbit data is extracted from the following two-line orbital elements,

1    59U 60013B   21102.14596878  .00000112  00000-0  28712-4 0  9996
2    59  28.2484 123.8782 0189048 273.2128  84.6805 13.52983486987598
Epoch (UTC): 12 April 2021 03:30:11
Eccentricity: 0.0189048
inclination: 28.2484°
perigee height: 920 km
apogee height: 1202 km
right ascension of ascending node: 123.8782°
argument of perigee: 273.2128°
revolutions per day: 13.52983486
mean anomaly at epoch: 84.6805°
orbit number at epoch: 98759

The dashed part of the orbit path shows where the satellite is in the earth's shadow,  

DLR